Lake Barkley Weather Center

Moon Phase Calendar



Lake Barkley Water Level
Online Cameras

 


      

Current Conditions in Cadiz
10/16/2021 5:07:15 PM

64°F
Feels Like 62
Clear
Humidity
38%
Pressure
30.15"
Wind
10.1 mph (NW)
Dew Point
38°F
UV Index
1/10 (Low)
Visibility
6 mi

Hourly Forecast

Date & Time Sat, Oct 16
5:00 PM
Sat, Oct 16
6:00 PM
Sat, Oct 16
7:00 PM
Sat, Oct 16
8:00 PM
Sat, Oct 16
9:00 PM
Sat, Oct 16
10:00 PM
Sat, Oct 16
11:00 PM
Sun, Oct 17
12:00 AM
Sun, Oct 17
1:00 AM
Sun, Oct 17
2:00 AM
Sun, Oct 17
3:00 AM
Sun, Oct 17
4:00 AM
Sun, Oct 17
5:00 AM
Sun, Oct 17
6:00 AM
Sun, Oct 17
7:00 AM
Sun, Oct 17
8:00 AM
Sun, Oct 17
9:00 AM
Sun, Oct 17
10:00 AM
Sun, Oct 17
11:00 AM
Sun, Oct 17
12:00 PM
Sun, Oct 17
1:00 PM
Sun, Oct 17
2:00 PM
Sun, Oct 17
3:00 PM
Sun, Oct 17
4:00 PM
Sun, Oct 17
5:00 PM
Sun, Oct 17
6:00 PM
Sun, Oct 17
7:00 PM
Sun, Oct 17
8:00 PM
Sun, Oct 17
9:00 PM
Sun, Oct 17
10:00 PM
Sun, Oct 17
11:00 PM
Mon, Oct 18
12:00 AM
Mon, Oct 18
1:00 AM
Mon, Oct 18
2:00 AM
Mon, Oct 18
3:00 AM
Mon, Oct 18
4:00 AM
Mon, Oct 18
5:00 AM
Mon, Oct 18
6:00 AM
Mon, Oct 18
7:00 AM
Mon, Oct 18
8:00 AM
Mon, Oct 18
9:00 AM
Mon, Oct 18
10:00 AM
Mon, Oct 18
11:00 AM
Mon, Oct 18
12:00 PM
Mon, Oct 18
1:00 PM
Mon, Oct 18
2:00 PM
Mon, Oct 18
3:00 PM
Mon, Oct 18
4:00 PM
Condition
Clear

Clear

Clear

Clear

Clear

Clear

Clear

Clear

Clear

Clear

Clear

Clear

Clear

Clear

Clear

Clear

Clear

Clear

Clear

Clear

Clear

Clear

Clear

Clear

Clear

Clear

Clear

Clear

Clear

Clear

Clear

Clear

Clear

Clear

Clear

Clear

Clear

Clear

Clear

Clear

Clear

Clear

Clear

Clear

Clear

Clear

Clear

Clear
Temperature 64°F63°F60°F57°F53°F49°F48°F48°F47°F46°F45°F45°F44°F44°F44°F47°F53°F58°F62°F64°F66°F67°F68°F67°F65°F58°F55°F53°F52°F51°F50°F49°F49°F48°F48°F47°F46°F46°F45°F49°F55°F60°F64°F67°F69°F70°F71°F70°F
Feels Like 62°F61°F58°F54°F51°F47°F47°F46°F45°F44°F44°F43°F42°F42°F42°F46°F50°F56°F60°F62°F64°F65°F66°F65°F64°F56°F53°F51°F50°F48°F48°F48°F48°F47°F46°F46°F45°F45°F44°F48°F53°F58°F62°F65°F68°F69°F69°F68°F
Cloudiness 0%0%0%0%0%0%0%0%0%0%0%0%0%0%0%0%0%0%0%0%0%0%0%0%0%0%0%0%0%0%0%0%0%0%0%0%0%0%0%0%0%0%0%0%0%0%0%0%
Visibility 6 mi6 mi6 mi6 mi6 mi6 mi6 mi6 mi6 mi6 mi6 mi6 mi6 mi6 mi6 mi6 mi6 mi6 mi6 mi6 mi6 mi6 mi6 mi6 mi6 mi6 mi6 mi6 mi6 mi6 mi6 mi6 mi6 mi6 mi6 mi6 mi6 mi6 mi6 mi6 mi6 mi6 mi6 mi6 mi6 mi6 mi6 mi6 mi
Precipitation 0%0%0%0%0%0%0%0%0%0%0%0%0%0%0%0%0%0%0%0%0%0%0%0%0%0%0%0%0%0%0%0%0%0%0%0%0%0%0%0%0%0%0%0%0%0%0%0%
Humidity 38%40%44%48%53%59%60%61%62%63%64%64%65%66%68%64%52%44%37%32%30%29%30%31%42%49%51%53%56%59%61%62%63%64%66%67%69%70%70%66%55%47%41%37%34%33%32%34%
Dew Point 38°F38°F38°F37°F36°F35°F35°F35°F34°F34°F34°F33°F33°F33°F33°F35°F36°F36°F35°F34°F34°F34°F35°F35°F42°F39°F37°F36°F36°F37°F37°F37°F36°F36°F36°F36°F36°F36°F36°F38°F39°F40°F40°F40°F40°F40°F40°F40°F
Pressure 30.15"30.15"30.15"30.18"30.21"30.21"30.21"30.21"30.24"30.24"30.24"30.24"30.24"30.24"30.27"30.27"30.3"30.27"30.27"30.24"30.24"30.21"30.21"30.18"30.18"30.18"30.21"30.21"30.21"30.21"30.21"30.21"30.21"30.21"30.21"30.21"30.21"30.21"30.24"30.24"30.24"30.24"30.21"30.21"30.18"30.15"30.12"30.12"
Wind Speed 10.1 mph6.2 mph5.2 mph4.9 mph4.7 mph4.6 mph4 mph4 mph4.1 mph4 mph4.1 mph4 mph3.8 mph3.7 mph3.6 mph3.3 mph3.7 mph4.2 mph4.8 mph5.1 mph5.3 mph5.2 mph4.8 mph4.3 mph3.4 mph3.7 mph3.9 mph4 mph4.1 mph3.6 mph3.6 mph3.4 mph3.2 mph3.7 mph3.9 mph3.7 mph3.7 mph3.4 mph3.7 mph3.8 mph4 mph4.5 mph4.7 mph4.9 mph4.6 mph4.6 mph4.7 mph4.3 mph
Wind
Direction
317°
NW
313°
NW
306°
NW
311°
NW
328°
NNW
333°
NNW
327°
NNW
320°
NW
317°
NW
315°
NW
309°
NW
305°
NW
307°
NW
305°
NW
300°
WNW
298°
WNW
305°
NW
309°
NW
316°
NW
313°
NW
315°
NW
315°
NW
309°
NW
303°
WNW
275°
W
246°
WSW
239°
WSW
239°
WSW
246°
WSW
246°
WSW
231°
SW
211°
SSW
193°
SSW
195°
SSW
201°
SSW
204°
SSW
206°
SSW
208°
SSW
200°
SSW
199°
SSW
201°
SSW
203°
SSW
206°
SSW
203°
SSW
204°
SSW
203°
SSW
207°
SSW
204°
SSW

Daily Forecast

Date High Low Precip. Humidity
Today
Oct 16

Clear
65 °F
48 °F
80%
34%
Sunday
Oct 17

Clear
68 °F
44 °F
0%
32%
Monday
Oct 18

Clear
70 °F
45 °F
0%
34%
Tuesday
Oct 19

Clouds
70 °F
47 °F
0%
40%
Wednesday
Oct 20

Clouds
73 °F
51 °F
0%
45%
Thursday
Oct 21

Rain
75 °F
54 °F
34%
37%
Friday
Oct 22

Clouds
65 °F
49 °F
0%
49%
Saturday
Oct 23

Clear
62 °F
43 °F
0%
41%
Sunday
Oct 24

Clear
63 °F
41 °F
0%
36%
Monday
Oct 25

Clouds
72 °F
46 °F
1%
44%
Tuesday
Oct 26

Rain
75 °F
63 °F
75%
78%
Wednesday
Oct 27

Rain
75 °F
56 °F
100%
37%
Thursday
Oct 28

Rain
71 °F
50 °F
58%
28%
Friday
Oct 29

Rain
70 °F
54 °F
100%
46%
Saturday
Oct 30

Clear
66 °F
46 °F
0%
22%
Sunday
Oct 31

Clear
63 °F
44 °F
0%
22%

Temperature 8-14 Day Outlook



Precipitation 8-14 Day Outlook




Quick Links
Lake Barkley News
Lake Barkley Photos
Lake Barkley Videos




About Us
Contact Us
Site Map
Search Site
Advertise With Us
   
Barkley.USLakes.info
THE LAKE BARKLEY WEBSITE

Copyright 2021, Lakes Online
Privacy    |    Legal